Hatteras, NC

12:11 AM EDT on June 23, 2017 (GMT -0400)
Mitchell

Weather History for KHSE - December, 2011

Change the Weather History Date:

Thursday, December 8, 2011

  Actual Average Record
Temperature  
Mean Temperature 51 °F 51 °F  
Max Temperature 56 °F 58 °F 74 °F (1978)
Min Temperature 46 °F 45 °F 28 °F (1983)
Degree Days  
Heating Degree Days 14 14  
Month to date heating degree days 69 104  
Since 1 July heating degree days 327 422  
Cooling Degree Days 0 0  
Month to date cooling degree days 1 0  
Year to date cooling degree days 2379 1711  
Moisture  
Dew Point 38 °F    
Average Humidity 67    
Maximum Humidity 83    
Minimum Humidity 50    
Precipitation  
Precipitation T in 0.13 in 2.16 in (1944)
Month to date precipitation 0.29 1.07  
Year to date precipitation 60.44 54.84  
Snow  
Snow 0.00 in - - ()
Month to date snowfall 0.0  
Since 1 July snowfall 0.0  
Snow Depth 0.00 in    
Sea Level Pressure  
Sea Level Pressure 30.16 in    
Wind  
Wind Speed 9 mph (North)    
Max Wind Speed 24 mph    
Max Gust Speed 38 mph    
Visibility 10 miles    
Events      
T = Trace of Precipitation, MM = Missing Value Source: NWS Daily Summary

Daily Weather History Graph

Daily Weather History Graph

Search for Another Location

Airport or City:

Trip Planner

Search our weather history database for the weather conditions in past years. The results will help you decide how hot, cold, wet, or windy it might be!

Date:

Astronomy

Dec. 08, 2011 Rise Set
Actual Time 6:58 AM EST 4:50 PM EST
Civil Twilight 6:30 AM EST 5:18 PM EST
Nautical Twilight 5:58 AM EST 5:49 PM EST
Astronomical Twilight 5:27 AM EST 6:20 PM EST
Moon 3:27 PM EST (12/8) 5:09 AM EST (12/8)
Length of Visible Light 10h 47m
Length of Day
9h 51m
Waxing Gibbous, 97% of the Moon is Illuminated
Dec 8
Waxing Gibbous
Dec 10
Full
Dec 17
Last Quarter
Dec 24
New
Jan 1
First Quarter

Hourly Weather History & Observations

Time (EST) Temp. Windchill Dew Point Humidity Pressure Visibility Wind Dir Wind Speed Gust Speed Precip Events Conditions
12:51 AM 55.0 °F - 46.0 °F 72% 29.81 in 10.0 mi West 20.7 mph 35.7 mph 0.00 in   Partly Cloudy
1:35 AM 55.4 °F - 48.2 °F 77% 29.85 in 10.0 mi West 19.6 mph 29.9 mph N/A   Mostly Cloudy
1:51 AM 54.0 °F - 48.0 °F 80% 29.87 in 10.0 mi NW 19.6 mph 33.4 mph N/A   Overcast
2:21 AM 50.0 °F - 46.4 °F 87% 29.91 in 10.0 mi NW 21.9 mph 31.1 mph N/A   Overcast
2:51 AM 48.9 °F - 42.1 °F 77% 29.94 in 10.0 mi NNW 17.3 mph 35.7 mph N/A   Overcast
3:25 AM 48.2 °F - 41.0 °F 76% 29.98 in 10.0 mi NNW 12.7 mph 34.5 mph N/A   Mostly Cloudy
3:51 AM 48.0 °F - 39.0 °F 71% 30.00 in 10.0 mi North 11.5 mph 21.9 mph N/A   Clear
4:51 AM 46.9 °F - 39.0 °F 74% 30.03 in 10.0 mi North 12.7 mph 21.9 mph N/A   Scattered Clouds
5:51 AM 46.9 °F - 35.1 °F 63% 30.09 in 10.0 mi Variable 6.9 mph 20.7 mph N/A   Clear
6:51 AM 46.0 °F 42.5 °F 36.0 °F 68% 30.14 in 10.0 mi Variable 6.9 mph 19.6 mph N/A   Clear
7:51 AM 46.9 °F - 36.0 °F 66% 30.19 in 10.0 mi North 8.1 mph 19.6 mph N/A   Partly Cloudy
8:51 AM 48.0 °F - 35.1 °F 61% 30.22 in 10.0 mi North 8.1 mph 19.6 mph N/A   Clear
9:51 AM 48.9 °F - 35.1 °F 59% 30.24 in 10.0 mi North 9.2 mph 20.7 mph N/A   Clear
10:51 AM 50.0 °F - 36.0 °F 59% 30.25 in 10.0 mi North 8.1 mph 21.9 mph N/A   Clear
11:51 AM 51.1 °F - 37.9 °F 61% 30.25 in 10.0 mi NNE 9.2 mph - N/A   Clear
12:51 PM 52.0 °F - 37.0 °F 57% 30.24 in 10.0 mi North 10.4 mph 18.4 mph N/A   Partly Cloudy
1:51 PM 51.1 °F - 35.1 °F 54% 30.24 in 10.0 mi North 8.1 mph 19.6 mph N/A   Clear
2:51 PM 51.1 °F - 33.1 °F 50% 30.25 in 10.0 mi NNE 9.2 mph - N/A   Clear
3:51 PM 48.0 °F - 33.1 °F 56% 30.24 in 10.0 mi NE 8.1 mph - N/A   Clear
4:51 PM 46.9 °F - 34.0 °F 61% 30.27 in 10.0 mi NE 5.8 mph - N/A   Clear
5:51 PM 46.9 °F - 35.1 °F 63% 30.30 in 10.0 mi NNE 5.8 mph - N/A   Clear
6:51 PM 46.9 °F - 35.1 °F 63% 30.32 in 10.0 mi NE 6.9 mph - N/A   Clear
7:51 PM 46.9 °F - 36.0 °F 66% 30.35 in 10.0 mi NNE 8.1 mph - N/A   Clear
8:51 PM 46.9 °F - 37.0 °F 68% 30.35 in 10.0 mi NE 6.9 mph - N/A   Clear
9:51 PM 46.9 °F - 37.9 °F 71% 30.36 in 10.0 mi NE 5.8 mph - N/A   Clear
10:51 PM 46.9 °F - 39.0 °F 74% 30.36 in 10.0 mi NE 4.6 mph - N/A   Clear
11:51 PM 46.9 °F - 39.9 °F 77% 30.32 in 10.0 mi ENE 4.6 mph - N/A   Clear